Flag for United Kingdom Weather past 2 weeks in Eastbourne, England, United Kingdom

Now
48 °F

Light rain. Passing clouds.


Feels Like: 45 °F
Forecast: 42 / 49 °F
Wind: 8 mph from West

Location: London / Gatwick Airport

Current Time: Jan 26, 2015 at 6:51:28 AM

Latest Report: Jan 26, 2015 at 6:20 AM


Visibility: N/A

Pressure: 30.18 "Hg

Humidity: 94%

Dew point: 46 °F

Location of EastbourneLocation

Historic Weather in Eastbourne — Graph

°F

Eastbourne temperature yesterday

Maximum temperature yesterday: 46 °F (at 1:50 PM)
Minimum temperature yesterday: 28 °F (at 2:50 AM)
Average temperature yesterday: 39 °F

Past Weeks' High & Low Weather Summary

 TemperatureHumidityPressure
High52 °F (Jan 12, 1:20 PM)100% (Jan 12, 12:50 PM)30.48 "Hg (Jan 12, 12:50 PM)
Low23 °F (Jan 20, 4:50 AM)61% (Jan 14, 2:20 PM)29.21 "Hg (Jan 15, 2:50 AM)
Average39 °F85%29.91 "Hg
* Reported Jan 11 5:20 AM — Jan 26 5:50 AM, Eastbourne, Weather by CustomWeather, © 2014

Note: Actual official high and low records may vary slightly from our data, if they occured in-between our weather recording intervals... More about our weather records

Advertising

Eastbourne weather history for previous 24 hours

 ConditionsComfort  
Time TempWeatherWind HumidityBarometerVisibility
5:50 AM
Jan 26
48 °FPassing clouds.8 mph94%30.18 "HgN/A
5:20 AM48 °FPassing clouds.6 mph87%30.18 "HgN/A
4:50 AM48 °FPassing clouds.7 mph94%30.21 "HgN/A
4:20 AM48 °FPassing clouds.9 mph94%30.21 "HgN/A
3:20 AM46 °FPassing clouds.6 mph93%30.21 "HgN/A
2:50 AM46 °FPassing clouds.7 mph93%30.24 "HgN/A
2:20 AM46 °FPassing clouds.5 mph93%30.24 "HgN/A
1:50 AM46 °FPassing clouds.5 mph93%30.24 "HgN/A
1:20 AM46 °FPassing clouds.6 mph93%30.27 "HgN/A
12:50 AM46 °FLight rain. Passing clouds.7 mph93%30.27 "HgN/A
12:20 AM46 °FPassing clouds.7 mph87%30.27 "HgN/A
11:50 PM
Jan 25
46 °FPassing clouds.7 mph87%30.30 "HgN/A
11:20 PM45 °FPassing clouds.7 mph93%30.30 "HgN/A
10:50 PM45 °FPassing clouds.6 mph93%30.30 "HgN/A
10:20 PM45 °FPassing clouds.6 mph87%30.30 "HgN/A
9:20 PM45 °FPassing clouds.7 mph87%30.33 "HgN/A
8:50 PM45 °FPassing clouds.8 mph81%30.33 "HgN/A
8:20 PM45 °FPassing clouds.7 mph81%30.33 "HgN/A
7:50 PM45 °FOvercast.7 mph81%30.33 "HgN/A
7:20 PM45 °FPassing clouds.6 mph81%30.36 "HgN/A
6:50 PM45 °FPassing clouds.7 mph81%30.36 "HgN/A
6:20 PM45 °FOvercast.7 mph81%30.36 "HgN/A
5:50 PM45 °FPassing clouds.7 mph76%30.36 "HgN/A
5:20 PM45 °FPassing clouds.7 mph76%30.39 "HgN/A
4:50 PM45 °FOvercast.8 mph76%30.36 "HgN/A
4:20 PM45 °FPartly sunny.9 mph76%30.39 "HgN/A
3:50 PM46 °FPartly sunny.10 mph71%30.39 "HgN/A
3:20 PM46 °FPartly sunny.13 mph71%30.39 "HgN/A
2:50 PM46 °FPartly sunny.15 mph71%30.39 "HgN/A
2:20 PM46 °FScattered clouds.7 mph71%30.39 "HgN/A
1:50 PM46 °FScattered clouds.9 mph71%30.39 "HgN/A
1:20 PM45 °FScattered clouds.9 mph71%30.39 "HgN/A
12:50 PM45 °FScattered clouds.9 mph71%30.42 "HgN/A
12:20 PM43 °FScattered clouds.8 mph76%30.42 "HgN/A
11:50 AM43 °FScattered clouds.9 mph71%30.45 "HgN/A
11:20 AM41 °FPartly sunny.8 mph76%30.45 "HgN/A
10:50 AM39 °FScattered clouds.6 mph81%30.48 "HgN/A
10:20 AM37 °FScattered clouds.5 mph87%30.48 "HgN/A
9:50 AM36 °FPassing clouds.6 mph87%30.48 "HgN/A
9:20 AM36 °FPassing clouds.6 mph87%30.45 "HgN/A
8:50 AM34 °FPartly sunny.5 mph93%30.48 "HgN/A
8:20 AM32 °FSunny.5 mph93%30.48 "Hg10 mi
7:50 AM30 °FSunny.5 mph93%30.48 "Hg10 mi
7:20 AM30 °FClear.3 mph93%30.48 "Hg10 mi
6:50 AM28 °FClear.No wind100%30.48 "Hg10 mi
6:20 AM30 °FClear.No wind93%30.48 "Hg10 mi
Weather by CustomWeather, © 2014

See weather overviewHow to use our weather pages